[[{"header":{"parameterUnit":"m.s-1","parameterCategory":1,"la1":30.2991,"la2":30.254,"lo1":-89.0895,"lo2":-89.0444,"dy":0.0017,"dx":0.0017,"nx":28,"ny":28,"refTime":"2025-02-25T09:00:00:Z","depth":0,"parameterNumber":2,"parameterNumberName":"U-component_of_WINDS"},"data":[0,0,0,0,0,0,0,0,0,0,0,0,0,0,0,0,0,0,0,0,0,0,0,0,0,0,0,0,0,0,0,0,0,0,0,0,0,0,0,0,0,0,0,0,0,0,0,0,0,0,0,0,0,0,0,0,0,0,1.119,1.1189,0,1.1151,1.1151,1.115,1.1119,1.1119,1.1119,1.1118,1.1077,1.1076,1.1076,0,0,0,0,0,0,0,0,0,0,0,0,0,1.1237,1.1237,1.119,1.1189,1.1189,1.1151,1.1151,1.115,1.1119,1.1119,1.1119,1.1118,1.1078,1.1077,1.1076,0,0,0,0,0,0,0,0,0,0,0,0,0,1.1209,1.1236,1.119,1.1169,1.1167,1.1151,1.1151,1.115,1.1119,1.1119,1.1119,1.1118,1.1078,1.1077,1.1075,1.1077,0,0,1.1072,1.1071,0,0,0,0,0,0,0,0,1.1211,1.1208,1.1173,1.117,1.1168,1.114,1.1152,1.1125,1.112,1.1137,1.1118,1.1118,1.1098,1.1095,1.1089,1.1075,1.1073,1.1072,1.1071,1.107,1.107,0,0,0,0,0,0,0,1.1213,1.1209,1.1174,1.1172,1.1169,1.1162,1.1157,1.1147,1.1121,1.1136,1.1133,1.1129,1.1097,1.109,1.1088,1.1073,1.1072,1.1071,1.107,1.1069,1.106,1.1061,0,0,0,0,0,0,1.1218,1.1211,1.1176,1.1173,1.1189,1.1161,1.1156,1.1149,1.1121,1.1116,1.113,1.1128,1.1093,1.1089,1.1086,1.1087,1.107,1.1069,1.1069,1.106,1.106,1.1061,0,0,0,0,0,0,1.1219,1.1215,1.1177,1.1192,1.1186,1.1161,1.1153,1.1149,1.1142,1.1116,1.1111,1.1128,1.1092,1.1088,1.108,1.1085,1.1069,1.1068,1.1059,1.106,1.1061,1.1088,0,0,0,0,0,0,1.1221,1.1216,1.1216,1.1192,1.1186,1.1172,1.1153,1.1148,1.114,1.1137,1.1113,1.1109,1.1091,1.1082,1.1079,1.1083,1.1067,1.1059,1.1059,1.106,1.1087,1.109,1.1093,0,0,0,0,0,1.1223,1.1225,1.1216,1.1212,1.1185,1.1172,1.1168,1.1149,1.1141,1.1141,1.1125,1.1109,1.1086,1.1082,1.1078,1.1082,1.1058,1.1059,1.106,1.1086,1.1089,1.1093,0,0,0,0,0,0,1.1249,1.1221,1.1211,1.1206,1.1192,1.1167,1.1166,1.1153,1.1141,1.1139,1.1115,1.1109,1.1104,1.1092,1.1088,1.1083,1.107,1.107,1.1091,1.1094,1.1097,1.1099,1.1066,0,0,0,0,0,1.1255,1.1247,1.1222,1.122,1.1213,1.1191,1.1185,1.1171,1.1155,1.1149,1.1132,1.1117,1.1106,1.11,1.1088,1.1086,1.108,1.1087,1.109,1.1092,1.1092,1.1091,1.1094,1.1064,1.1064,1.1064,0,0,1.1265,1.1249,1.1245,1.1225,1.1212,1.1204,1.1186,1.1178,1.1172,1.1147,1.1139,1.1127,1.1109,1.1104,1.1101,1.1094,1.11,1.1093,1.1096,1.1094,1.1093,1.1096,1.1098,1.1065,1.1065,1.1065,0,0,1.128,1.1267,1.1264,1.1253,1.1234,1.122,1.122,1.1197,1.1188,1.118,1.1162,1.1155,1.1136,1.1124,1.1116,1.113,1.1116,1.1127,1.1142,1.1141,1.1143,1.1145,1.115,1.1153,1.1128,1.1128,1.1128,0,1.1296,1.1283,1.1264,1.1258,1.125,1.1229,1.1226,1.1215,1.1194,1.1189,1.1182,1.116,1.1146,1.1138,1.1142,1.1136,1.1135,1.1129,1.1144,1.1146,1.1148,1.1153,1.1155,1.1129,1.1129,1.1129,1.1129,0,1.1303,1.1295,1.1295,1.1276,1.1268,1.1264,1.1244,1.1239,1.1227,1.1213,1.1206,1.1189,1.1175,1.1172,1.116,1.1164,1.116,1.1149,1.1135,1.1152,1.1157,1.1158,1.1131,1.1131,1.113,1.113,0,0,1.1332,1.1305,1.1305,1.1297,1.1276,1.127,1.1265,1.1252,1.1248,1.1235,1.123,1.1216,1.1207,1.1197,1.1184,1.1183,1.1196,1.1172,1.1172,1.1178,1.1201,1.1209,1.1211,1.1188,1.1188,1.1188,1.1202,0,1.1344,1.1334,1.1318,1.1313,1.1306,1.1287,1.1283,1.127,1.1259,1.1251,1.1238,1.1229,1.1216,1.1211,1.121,1.1195,1.1201,1.1194,1.1183,1.1183,1.1188,1.1213,1.1221,1.1235,1.1204,1.1204,1.1204,0,1.1355,1.1345,1.134,1.1322,1.1318,1.1315,1.1302,1.1295,1.1281,1.1273,1.1264,1.125,1.1244,1.1233,1.1225,1.1221,1.1216,1.1209,1.1209,1.1206,1.1194,1.1211,1.1239,1.1241,1.1206,1.1206,1.1206,0,1.1377,1.1361,1.1357,1.1351,1.1329,1.1328,1.1319,1.1304,1.1298,1.1287,1.1283,1.1272,1.1265,1.1257,1.124,1.1234,1.1235,1.1222,1.1228,1.1228,1.1228,1.1228,1.1255,1.1226,1.1226,1.1226,1.1226,0,1.1391,1.1389,1.1366,1.1363,1.1361,1.1343,1.1341,1.133,1.1318,1.1313,1.1296,1.1292,1.1271,1.1264,1.1251,1.1248,1.1245,1.1238,1.1234,1.1239,1.124,1.1235,1.1233,1.1226,1.1226,1.1226,1.1226,0,1.1414,1.1399,1.1393,1.1374,1.1369,1.1368,1.1352,1.1349,1.1337,1.1332,1.1329,1.131,1.1302,1.1285,1.1272,1.1264,1.1263,1.1257,1.1268,1.1265,1.1272,1.1272,1.1296,1.1298,1.1268,1.1269,1.1269,0,1.1424,1.1422,1.1404,1.14,1.1392,1.1385,1.1379,1.1362,1.1357,1.1342,1.1341,1.1331,1.1323,1.1311,1.1296,1.1286,1.128,1.1289,1.1278,1.1283,1.128,1.128,1.128,1.1291,1.1291,1.1292,1.1292,0,1.1443,1.1436,1.1428,1.1419,1.1412,1.1404,1.1394,1.1392,1.1372,1.1367,1.1359,1.1353,1.134,1.1331,1.132,1.1311,1.1298,1.1296,1.1297,1.1301,1.1307,1.1304,1.1274,1.1295,1.1295,1.1295,1.1294,1.1294,1.1459,1.1457,1.1445,1.1437,1.1429,1.1421,1.1417,1.1406,1.1399,1.1388,1.1378,1.1371,1.1359,1.1343,1.1335,1.1329,1.1323,1.1324,1.1324,1.1325,1.1327,1.1309,1.1327,1.1327,1.1327,1.1327,1.1327,0,1.1477,1.1469,1.1462,1.145,1.1445,1.1435,1.1424,1.142,1.1415,1.1405,1.1397,1.1389,1.1381,1.1366,1.1357,1.1356,1.135,1.1354,1.1353,1.1352,1.1333,1.1333,1.1359,1.1359,1.1359,1.1359,1.1359,1.1359,1.1486,1.1483,1.1475,1.1467,1.1459,1.1452,1.1447,1.144,1.1432,1.1424,1.1417,1.1409,1.1397,1.1388,1.138,1.1376,1.1373,1.1379,1.1374,1.1356,1.1353,1.135,1.135,1.1379,1.1379,1.1393,1.1393,1.1393]},{"header":{"parameterUnit":"m.s-1","parameterCategory":1,"la1":30.2991,"la2":30.254,"lo1":-89.0895,"lo2":-89.0444,"dy":0.0017,"dx":0.0017,"nx":28,"ny":28,"refTime":"2025-02-25T09:00:00:Z","depth":0,"parameterNumber":3,"parameterNumberName":"V-component_of_WINDS"},"data":[0,0,0,0,0,0,0,0,0,0,0,0,0,0,0,0,0,0,0,0,0,0,0,0,0,0,0,0,0,0,0,0,0,0,0,0,0,0,0,0,0,0,0,0,0,0,0,0,0,0,0,0,0,0,0,0,0,0,-2.5045,-2.5045,0,-2.5094,-2.5094,-2.5095,-2.5084,-2.5083,-2.5082,-2.5082,-2.5129,-2.5131,-2.5133,0,0,0,0,0,0,0,0,0,0,0,0,0,-2.494,-2.4942,-2.5045,-2.5045,-2.5046,-2.5094,-2.5094,-2.5095,-2.5084,-2.5083,-2.5082,-2.5081,-2.5128,-2.513,-2.5133,0,0,0,0,0,0,0,0,0,0,0,0,0,-2.4987,-2.4942,-2.5045,-2.5046,-2.5047,-2.5094,-2.5094,-2.5095,-2.5085,-2.5083,-2.5082,-2.5081,-2.5127,-2.513,-2.5133,-2.518,0,0,-2.5143,-2.5144,0,0,0,0,0,0,0,0,-2.4984,-2.499,-2.5046,-2.5046,-2.5047,-2.5082,-2.5075,-2.5123,-2.5085,-2.507,-2.5081,-2.508,-2.5114,-2.5118,-2.513,-2.5182,-2.5184,-2.5143,-2.5145,-2.5146,-2.5147,0,0,0,0,0,0,0,-2.4981,-2.4988,-2.5064,-2.5046,-2.5047,-2.5044,-2.5049,-2.5084,-2.5099,-2.5071,-2.5071,-2.5077,-2.5114,-2.5127,-2.5131,-2.5185,-2.5143,-2.5146,-2.5148,-2.5149,-2.5279,-2.5281,0,0,0,0,0,0,-2.4977,-2.4986,-2.5062,-2.5065,-2.5012,-2.5047,-2.5053,-2.5072,-2.5099,-2.5101,-2.5078,-2.5076,-2.5122,-2.5127,-2.5133,-2.519,-2.5146,-2.5149,-2.5151,-2.5278,-2.5279,-2.5281,0,0,0,0,0,0,-2.4975,-2.4984,-2.506,-2.5025,-2.5035,-2.505,-2.5072,-2.5073,-2.5087,-2.5104,-2.5106,-2.5089,-2.5121,-2.5128,-2.5169,-2.5192,-2.5151,-2.5154,-2.5276,-2.5278,-2.528,-2.5305,0,0,0,0,0,0,-2.4972,-2.4983,-2.5002,-2.5026,-2.5037,-2.5096,-2.5073,-2.5075,-2.5092,-2.5091,-2.5114,-2.5117,-2.5121,-2.5164,-2.5172,-2.5195,-2.5156,-2.5274,-2.5277,-2.528,-2.5302,-2.5308,-2.5313,0,0,0,0,0,-2.4968,-2.5005,-2.5003,-2.5012,-2.506,-2.5098,-2.5104,-2.5109,-2.5094,-2.5113,-2.5124,-2.5116,-2.5188,-2.5168,-2.5177,-2.5202,-2.5272,-2.5276,-2.5279,-2.53,-2.5307,-2.5312,0,0,0,0,0,0,-2.4982,-2.5009,-2.5006,-2.5052,-2.5073,-2.5096,-2.5119,-2.5116,-2.514,-2.5137,-2.5141,-2.5146,-2.5188,-2.5199,-2.5177,-2.5249,-2.5228,-2.5233,-2.524,-2.5247,-2.5252,-2.5249,-2.5159,0,0,0,0,0,-2.499,-2.502,-2.5041,-2.508,-2.5091,-2.5103,-2.512,-2.5122,-2.5143,-2.5151,-2.5165,-2.5186,-2.5213,-2.523,-2.5256,-2.5304,-2.5309,-2.5325,-2.533,-2.5334,-2.5339,-2.5366,-2.5373,-2.5293,-2.5293,-2.5293,0,0,-2.5008,-2.5026,-2.5044,-2.5083,-2.5099,-2.5129,-2.5111,-2.5142,-2.5164,-2.5156,-2.5196,-2.5207,-2.5229,-2.5274,-2.5294,-2.5284,-2.5362,-2.5339,-2.5342,-2.5344,-2.537,-2.5378,-2.5384,-2.5295,-2.5295,-2.5294,0,0,-2.5055,-2.5072,-2.5107,-2.5124,-2.515,-2.5158,-2.5167,-2.5191,-2.5198,-2.5239,-2.5234,-2.5259,-2.5306,-2.5323,-2.5337,-2.5393,-2.5387,-2.5401,-2.5429,-2.5455,-2.5461,-2.5467,-2.5488,-2.5495,-2.5406,-2.5406,-2.5406,0,-2.5074,-2.5119,-2.5125,-2.5158,-2.5176,-2.5171,-2.5207,-2.5223,-2.5255,-2.5267,-2.5255,-2.5315,-2.533,-2.5379,-2.5393,-2.5404,-2.5414,-2.5399,-2.546,-2.5466,-2.5471,-2.5491,-2.5498,-2.5408,-2.5407,-2.5407,-2.5407,0,-2.5141,-2.5172,-2.5197,-2.5231,-2.5251,-2.5285,-2.5296,-2.5315,-2.5316,-2.5326,-2.5367,-2.5385,-2.5415,-2.5427,-2.5427,-2.5476,-2.547,-2.5459,-2.5438,-2.548,-2.5499,-2.5506,-2.541,-2.5409,-2.5409,-2.5408,0,0,-2.5197,-2.5235,-2.5244,-2.526,-2.5288,-2.5312,-2.5346,-2.5377,-2.5394,-2.5417,-2.5446,-2.5486,-2.5477,-2.5494,-2.5496,-2.5519,-2.5563,-2.5506,-2.5507,-2.5517,-2.562,-2.5628,-2.5636,-2.556,-2.5561,-2.5562,-2.5618,0,-2.5248,-2.5309,-2.5316,-2.537,-2.54,-2.5397,-2.5426,-2.5447,-2.5457,-2.5483,-2.5494,-2.5523,-2.5509,-2.5519,-2.5541,-2.5553,-2.5584,-2.5549,-2.5586,-2.5587,-2.5581,-2.5646,-2.5654,-2.5706,-2.5625,-2.5626,-2.5627,0,-2.5315,-2.5341,-2.5399,-2.5425,-2.5438,-2.5465,-2.5494,-2.5519,-2.5543,-2.5549,-2.5568,-2.5568,-2.5603,-2.5581,-2.5629,-2.5605,-2.5621,-2.5629,-2.5631,-2.5635,-2.561,-2.5652,-2.5722,-2.573,-2.5639,-2.5638,-2.5637,0,-2.5351,-2.5401,-2.5443,-2.5456,-2.5487,-2.5506,-2.552,-2.5542,-2.5561,-2.5586,-2.5599,-2.5627,-2.5643,-2.5665,-2.5673,-2.5656,-2.5721,-2.5699,-2.5727,-2.5727,-2.574,-2.5739,-2.5815,-2.575,-2.575,-2.575,-2.5749,0,-2.5407,-2.5442,-2.546,-2.5485,-2.5525,-2.5533,-2.5572,-2.5584,-2.5605,-2.5632,-2.5631,-2.5656,-2.5665,-2.5692,-2.5698,-2.5737,-2.5744,-2.575,-2.5751,-2.575,-2.575,-2.576,-2.5757,-2.5752,-2.5751,-2.5751,-2.575,0,-2.5454,-2.5467,-2.5512,-2.5539,-2.5546,-2.5575,-2.5597,-2.5622,-2.5632,-2.5667,-2.5676,-2.5692,-2.5724,-2.5734,-2.5772,-2.5776,-2.5822,-2.582,-2.5815,-2.5815,-2.5842,-2.584,-2.5927,-2.5939,-2.5866,-2.5867,-2.5867,0,-2.5489,-2.5517,-2.5547,-2.5566,-2.5581,-2.5612,-2.5631,-2.564,-2.5661,-2.5691,-2.5711,-2.5744,-2.577,-2.5821,-2.5836,-2.5865,-2.5864,-2.5892,-2.5868,-2.5867,-2.5865,-2.5863,-2.5867,-2.5897,-2.5898,-2.5898,-2.5899,0,-2.555,-2.5556,-2.5584,-2.5616,-2.564,-2.5665,-2.5689,-2.5704,-2.5717,-2.574,-2.5773,-2.5794,-2.5834,-2.5866,-2.5896,-2.591,-2.5907,-2.5907,-2.5915,-2.5914,-2.591,-2.5914,-2.5828,-2.5904,-2.5904,-2.5903,-2.5903,-2.5903,-2.5593,-2.5618,-2.5644,-2.5676,-2.5696,-2.5718,-2.5743,-2.5758,-2.5786,-2.5821,-2.5824,-2.586,-2.5884,-2.5925,-2.594,-2.5968,-2.596,-2.5971,-2.5974,-2.5977,-2.598,-2.5906,-2.5974,-2.5973,-2.5973,-2.5973,-2.5973,0,-2.5654,-2.5671,-2.5701,-2.5736,-2.5762,-2.5758,-2.5785,-2.5806,-2.5839,-2.5862,-2.5889,-2.5928,-2.5959,-2.5977,-2.6008,-2.6028,-2.6027,-2.6036,-2.6034,-2.6038,-2.5985,-2.5975,-2.6036,-2.6036,-2.6036,-2.6036,-2.6036,-2.6036,-2.5689,-2.5732,-2.5741,-2.5793,-2.5809,-2.5846,-2.5862,-2.5883,-2.5902,-2.5946,-2.5973,-2.5985,-2.6006,-2.6039,-2.6068,-2.6072,-2.6084,-2.6094,-2.6097,-2.6048,-2.6041,-2.6035,-2.6026,-2.6096,-2.6096,-2.6148,-2.6148,-2.6148]}]]